This demonstration page uses our WeatherBlox Daily Observations layout. Learn more.

Left ArrowRight Arrow

Hourly Observations for October 13, 2015

Temp ( °F °C ) Dew Point ( °F °C ) Humidity (%) Winds ( mph kmh ) Pressure ( in mb ) Visibility ( mi km ) Precip ( " mm )
12:15 am 00:15 Clear 48 9 30 -1 50 50 W 6 9 30.00 1016 10 16 0.00 0.00
12:35 am 00:35 Clear 46 8 30 -1 53 53 W 5 7 30.03 1017 10 16 0.00 0.00
12:55 am 00:55 Clear 46 8 30 -1 53 53 WNW 8 13 30.03 1017 10 16 0.00 0.00
1:15 am 01:15 Clear 48 9 30 -1 50 50 W 7 11 30.00 1016 10 16 0.00 0.00
1:35 am 01:35 Clear 46 8 30 -1 53 53 W 5 7 30.03 1017 10 16 0.00 0.00
1:55 am 01:55 Clear 46 8 30 -1 53 53 WSW 3 6 30.03 1017 10 16 0.00 0.00
2:15 am 02:15 Clear 46 8 30 -1 53 53 W 5 7 30.03 1017 10 16 0.00 0.00
2:35 am 02:35 Clear 45 7 30 -1 57 57 W 5 7 30.03 1017 10 16 0.00 0.00
2:55 am 02:55 Clear 45 7 30 -1 57 57 WNW 3 6 30.03 1017 10 16 0.00 0.00
3:15 am 03:15 Clear 46 8 28 -2 50 50 WNW 6 9 30.03 1017 10 16 0.00 0.00
3:35 am 03:35 Clear 45 7 28 -2 53 53 NW 5 7 30.00 1016 10 16 0.00 0.00
3:55 am 03:55 Clear 43 6 28 -2 57 57 WNW 6 9 30.00 1016 10 16 0.00 0.00
4:15 am 04:15 Clear 43 6 28 -2 57 57 Calm 30.00 1016 10 16 0.00 0.00
4:35 am 04:35 Clear 45 7 28 -2 53 53 WNW 6 9 30.00 1016 10 16 0.00 0.00
4:55 am 04:55 Clear 43 6 30 -1 61 61 WSW 3 6 30.00 1016 10 16 0.00 0.00
5:15 am 05:15 Clear 45 7 30 -1 57 57 WSW 5 7 30.00 1016 10 16 0.00 0.00
5:35 am 05:35 Clear 45 7 30 -1 57 57 W 6 9 30.00 1016 10 16 0.00 0.00
5:55 am 05:55 Clear 46 8 28 -2 50 50 WSW 6 9 29.97 1015 10 16 0.00 0.00
6:15 am 06:15 Clear 46 8 28 -2 50 50 WSW 6 9 29.97 1015 10 16 0.00 0.00
6:35 am 06:35 Clear 39 4 28 -2 65 65 Calm 30.06 1018 10 16 0.00 0.00
6:55 am 06:55 Clear 39 4 28 -2 65 65 Calm 30.06 1018 10 16 0.00 0.00
7:15 am 07:15 Clear 41 5 30 -1 66 66 Calm 30.00 1016 10 16 0.00 0.00
7:35 am 07:35 Clear 43 6 30 -1 61 61 WSW 3 6 30.00 1016 10 16 0.00 0.00
7:55 am 07:55 Sunny 43 6 28 -2 57 57 Calm 30.03 1017 10 16 0.00 0.00
8:15 am 08:15 Sunny 39 4 30 -1 70 70 Calm 30.06 1018 6 10 0.00 0.00
8:35 am 08:35 Sunny 43 6 30 -1 61 61 Calm 30.03 1017 9 14 0.00 0.00
8:55 am 08:55 Sunny 46 8 34 1 62 62 WNW 3 6 30.03 1017 9 14 0.00 0.00
9:15 am 09:15 Sunny 48 9 34 1 58 58 Calm 30.00 1016 5 8 0.00 0.00
9:35 am 09:35 Sunny 54 12 34 1 47 47 Calm 29.97 1015 10 16 0.00 0.00
9:55 am 09:55 Sunny 55 13 34 1 44 44 WSW 3 6 30.00 1016 10 16 0.00 0.00
10:15 am 10:15 Sunny 61 16 30 -1 31 31 SW 8 13 29.94 1014 10 16 0.00 0.00
10:35 am 10:35 Sunny 63 17 30 -1 30 30 WSW 7 11 29.97 1015 10 16 0.00 0.00
10:55 am 10:55 Sunny 64 18 32 0 30 30 SW 6 9 29.97 1015 10 16 0.00 0.00
11:15 am 11:15 Sunny 66 19 34 1 30 30 SW 8 13 29.94 1014 10 16 0.00 0.00
11:35 am 11:35 Sunny 70 21 34 1 27 27 WSW 8 13 29.91 1013 10 16 0.00 0.00
11:55 am 11:55 Sunny 72 22 36 2 27 27 WSW 9 15 29.91 1013 10 16 0.00 0.00
12:15 pm 12:15 Sunny 73 23 34 1 23 23 W 8 13 29.91 1013 10 16 0.00 0.00
12:35 pm 12:35 Sunny 75 24 34 1 22 22 W 8 13 29.88 1012 10 16 0.00 0.00
12:55 pm 12:55 Sunny 77 25 34 1 21 21 W 9 15 29.88 1012 10 16 0.00 0.00
1:15 pm 13:15 Sunny 77 25 36 2 22 22 WNW 7 11 29.88 1012 10 16 0.00 0.00
1:35 pm 13:35 Sunny 79 26 36 2 21 21 WNW 10 17 29.85 1011 10 16 0.00 0.00
1:55 pm 13:55 Sunny 79 26 34 1 20 20 W 10 17 29.85 1011 10 16 0.00 0.00
2:15 pm 14:15 Sunny 81 27 34 1 18 18 WNW 12 19 29.83 1010 10 16 0.00 0.00
2:35 pm 14:35 Sunny 81 27 34 1 18 18 WNW 14 22 29.83 1010 10 16 0.00 0.00
2:55 pm 14:55 Sunny 81 27 34 1 18 18 WNW 15 24 29.83 1010 10 16 0.00 0.00
3:15 pm 15:15 Sunny 82 28 36 2 19 19 WNW 18 30 29.83 1010 10 16 0.00 0.00
3:35 pm 15:35 Sunny 82 28 34 1 17 17 WNW 17 28 29.83 1010 10 16 0.00 0.00
3:55 pm 15:55 Sunny 82 28 34 1 17 17 WNW 14 22 29.80 1009 10 16 0.00 0.00
4:15 pm 16:15 Sunny 82 28 34 1 17 17 NNW 17 28 29.83 1010 10 16 0.00 0.00
4:35 pm 16:35 Sunny 82 28 32 0 16 16 NW 16 26 29.83 1010 10 16 0.00 0.00
4:55 pm 16:55 Sunny 82 28 32 0 16 16 NNW 18 30 29.83 1010 10 16 0.00 0.00
5:15 pm 17:15 Sunny 81 27 32 0 17 17 NNW 15 24 29.83 1010 10 16 0.00 0.00
5:35 pm 17:35 Sunny 81 27 32 0 17 17 NNW 15 24 29.83 1010 10 16 0.00 0.00
5:55 pm 17:55 Sunny 79 26 32 0 18 18 NW 14 22 29.85 1011 10 16 0.00 0.00
6:15 pm 18:15 Sunny 79 26 34 1 20 20 NNW 10 17 29.85 1011 10 16 0.00 0.00
6:35 pm 18:35 Sunny 75 24 34 1 22 22 NNW 13 20 29.85 1011 10 16 0.00 0.00
6:55 pm 18:55 Sunny 73 23 36 2 25 25 N 8 13 29.91 1013 10 16 0.00 0.00
7:15 pm 19:15 Clear 66 19 36 2 32 32 N 12 19 29.94 1014 10 16 0.00 0.00
7:35 pm 19:35 Clear 64 18 36 2 34 34 N 9 15 29.94 1014 10 16 0.00 0.00
7:55 pm 19:55 Clear 64 18 36 2 34 34 N 7 11 29.94 1014 10 16 0.00 0.00
8:15 pm 20:15 Clear 63 17 36 2 37 37 N 7 11 29.94 1014 10 16 0.00 0.00
8:35 pm 20:35 Clear 59 15 34 1 39 39 N 9 15 30.00 1016 10 16 0.00 0.00
8:55 pm 20:55 Clear 57 14 36 2 44 44 N 6 9 30.00 1016 10 16 0.00 0.00
9:15 pm 21:15 Clear 57 14 36 2 44 44 N 5 7 30.00 1016 10 16 0.00 0.00
9:35 pm 21:35 Clear 57 14 36 2 44 44 N 6 9 30.00 1016 10 16 0.00 0.00
9:55 pm 21:55 Clear 57 14 36 2 44 44 NNE 5 7 30.00 1016 10 16 0.00 0.00
10:15 pm 22:15 Clear 55 13 36 2 47 47 NNE 8 13 30.00 1016 10 16 0.00 0.00
10:35 pm 22:35 Clear 55 13 36 2 47 47 NNE 3 6 30.00 1016 10 16 0.00 0.00
10:55 pm 22:55 Clear 57 14 36 2 44 44 Calm 30.03 1017 10 16 0.00 0.00
11:15 pm 23:15 Clear 55 13 36 2 47 47 NNW 6 9 30.03 1017 10 16 0.00 0.00
11:35 pm 23:35 Clear 55 13 36 2 47 47 N 7 11 30.03 1017 10 16 0.00 0.00
11:55 pm 23:55 Clear 55 13 34 1 44 44 N 7 11 30.03 1017 10 16 0.00 0.00

Powered by AerisWeather